Time,TemperatureF,DewpointF,PressureIn,WindDirection,WindDirectionDegrees,WindSpeedMPH,WindSpeedGustMPH,Humidity,HourlyPrecipIn,Conditions,Clouds,dailyrainin,SoftwareType,DateUTC
2013-04-09 00:03:00,31.0,29.0,30.12,NW,322,0.0,0.0,91,0.00,,,-99.99,,2013-04-09 04:03:00,
2013-04-09 00:13:00,31.0,29.0,30.12,NW,322,0.0,0.0,91,0.00,,,-99.99,,2013-04-09 04:13:00,
2013-04-09 00:23:00,31.0,29.0,30.12,NW,322,0.0,0.0,91,0.00,,,-99.99,,2013-04-09 04:23:00,
2013-04-09 00:32:00,31.0,29.0,30.12,NW,322,0.0,0.0,91,0.00,,,-99.99,,2013-04-09 04:32:00,
2013-04-09 00:42:00,31.0,29.0,30.12,NW,322,0.0,0.0,91,0.00,,,-99.99,,2013-04-09 04:42:00,
2013-04-09 00:52:00,31.0,29.0,30.12,NW,322,0.0,0.0,91,0.00,,,-99.99,,2013-04-09 04:52:00,
2013-04-09 01:02:00,30.0,28.0,30.13,NW,322,0.0,0.0,92,0.00,,,-99.99,,2013-04-09 05:02:00,
2013-04-09 01:12:00,30.0,28.0,30.14,NW,322,0.0,0.0,92,0.00,,,-99.99,,2013-04-09 05:12:00,
2013-04-09 01:22:00,30.0,28.0,30.14,NW,322,0.0,0.0,92,0.00,,,-99.99,,2013-04-09 05:22:00,
2013-04-09 01:32:00,30.0,28.0,30.12,NW,322,0.0,0.0,93,0.00,,,-99.99,,2013-04-09 05:32:00,
2013-04-09 01:43:00,30.0,28.0,30.11,NW,322,0.0,0.0,92,0.00,,,-99.99,,2013-04-09 05:43:00,
2013-04-09 01:52:00,30.0,28.0,30.11,NW,322,0.0,0.0,92,0.00,,,-99.99,,2013-04-09 05:52:00,
2013-04-09 02:02:00,29.0,27.0,30.11,NW,322,0.0,0.0,93,0.00,,,-99.99,,2013-04-09 06:02:00,
2013-04-09 02:12:00,30.0,28.0,30.09,NW,322,0.0,0.0,93,0.00,,,-99.99,,2013-04-09 06:12:00,
2013-04-09 02:22:00,30.0,28.0,30.09,NW,322,0.0,0.0,93,0.00,,,-99.99,,2013-04-09 06:22:00,
2013-04-09 02:32:00,29.0,27.0,30.09,NW,322,0.0,0.0,93,0.00,,,-99.99,,2013-04-09 06:32:00,
2013-04-09 02:42:00,29.0,27.0,30.09,NW,322,0.0,0.0,93,0.00,,,-99.99,,2013-04-09 06:42:00,
2013-04-09 02:52:00,29.0,27.0,30.10,NW,322,0.0,0.0,93,0.00,,,-99.99,,2013-04-09 06:52:00,
2013-04-09 03:02:00,29.0,27.0,30.08,NW,322,0.0,0.0,93,0.00,,,-99.99,,2013-04-09 07:02:00,
2013-04-09 03:13:00,29.0,27.0,30.08,NW,322,0.0,0.0,93,0.00,,,-99.99,,2013-04-09 07:13:00,
2013-04-09 03:22:00,29.0,27.0,30.07,NW,322,0.0,0.0,93,0.00,,,-99.99,,2013-04-09 07:22:00,
2013-04-09 03:32:00,29.0,27.0,30.08,NW,322,0.0,0.0,94,0.00,,,-99.99,,2013-04-09 07:32:00,
2013-04-09 03:42:00,29.0,27.0,30.08,NW,322,0.0,0.0,94,0.00,,,-99.99,,2013-04-09 07:42:00,
2013-04-09 03:52:00,29.0,27.0,30.08,NW,322,0.0,0.0,94,0.00,,,-99.99,,2013-04-09 07:52:00,
2013-04-09 04:03:00,29.0,27.0,30.08,NW,322,0.0,0.0,94,0.00,,,-99.99,,2013-04-09 08:03:00,
2013-04-09 04:12:00,29.0,27.0,30.08,NW,322,0.0,0.0,94,0.00,,,-99.99,,2013-04-09 08:12:00,
2013-04-09 04:22:00,29.0,27.0,30.06,NW,322,0.0,0.0,94,0.00,,,-99.99,,2013-04-09 08:22:00,
2013-04-09 04:32:00,29.0,27.0,30.05,NW,322,0.0,0.0,94,0.00,,,-99.99,,2013-04-09 08:32:00,
2013-04-09 04:42:00,29.0,27.0,30.05,NW,322,0.0,0.0,94,0.00,,,-99.99,,2013-04-09 08:42:00,
2013-04-09 04:52:00,30.0,29.0,30.06,NW,322,0.0,0.0,95,0.00,,,-99.99,,2013-04-09 08:52:00,
2013-04-09 05:02:00,30.0,29.0,30.05,NW,322,0.0,0.0,95,0.00,,,-99.99,,2013-04-09 09:02:00,
2013-04-09 05:12:00,30.0,29.0,30.05,NW,322,0.0,0.0,95,0.00,,,-99.99,,2013-04-09 09:12:00,
2013-04-09 05:22:00,31.0,30.0,30.05,NW,322,0.0,0.0,95,0.00,,,-99.99,,2013-04-09 09:22:00,
2013-04-09 05:33:00,31.0,30.0,30.06,NW,322,0.0,0.0,95,0.00,,,-99.99,,2013-04-09 09:33:00,
2013-04-09 05:43:00,31.0,30.0,30.06,NW,322,0.0,0.0,95,0.00,,,-99.99,,2013-04-09 09:43:00,
2013-04-09 05:53:00,31.0,30.0,30.06,NW,322,0.0,0.0,95,0.00,,,-99.99,,2013-04-09 09:53:00,
2013-04-09 06:03:00,32.0,31.0,30.07,NW,322,0.0,0.0,95,0.00,,,-99.99,,2013-04-09 10:03:00,
2013-04-09 06:13:00,32.0,31.0,30.07,NW,322,0.0,0.0,95,0.00,,,-99.99,,2013-04-09 10:13:00,
2013-04-09 06:23:00,32.0,30.0,30.07,NW,322,0.0,0.0,94,0.00,,,-99.99,,2013-04-09 10:23:00,
2013-04-09 06:33:00,32.0,30.0,30.08,NW,322,0.0,0.0,94,0.00,,,-99.99,,2013-04-09 10:33:00,
2013-04-09 06:43:00,32.0,30.0,30.08,NW,322,0.0,0.0,94,0.00,,,-99.99,,2013-04-09 10:43:00,
2013-04-09 06:52:00,33.0,31.0,30.09,NW,322,0.0,0.0,94,0.00,,,-99.99,,2013-04-09 10:52:00,
2013-04-09 07:02:00,33.0,31.0,30.08,NW,322,0.0,0.0,94,0.00,,,-99.99,,2013-04-09 11:02:00,
2013-04-09 07:12:00,33.0,31.0,30.08,NW,322,0.0,0.0,94,0.00,,,-99.99,,2013-04-09 11:12:00,
2013-04-09 07:22:00,33.0,31.0,30.08,NW,322,0.0,0.0,94,0.19,,,-99.99,,2013-04-09 11:22:00,
2013-04-09 07:32:00,33.0,32.0,30.06,NW,322,0.0,0.0,95,0.10,,,-99.99,,2013-04-09 11:32:00,
2013-04-09 07:42:00,33.0,32.0,30.06,NW,322,0.0,0.0,95,0.10,,,-99.99,,2013-04-09 11:42:00,
2013-04-09 07:52:00,33.0,32.0,30.06,NW,322,0.0,0.0,95,0.05,,,-99.99,,2013-04-09 11:52:00,
2013-04-09 08:02:00,34.0,33.0,30.04,NW,322,0.0,0.0,96,0.04,,,-99.99,,2013-04-09 12:02:00,
2013-04-09 08:12:00,34.0,33.0,30.04,NW,322,0.0,0.0,96,0.04,,,-99.99,,2013-04-09 12:12:00,
2013-04-09 08:22:00,34.0,33.0,30.03,NW,322,0.0,2.0,96,0.51,,,-99.99,,2013-04-09 12:22:00,
2013-04-09 08:32:00,34.0,33.0,30.03,NW,322,0.0,1.0,96,0.36,,,-99.99,,2013-04-09 12:32:00,
2013-04-09 08:42:00,34.0,33.0,30.03,NW,322,0.0,1.0,96,0.36,,,-99.99,,2013-04-09 12:42:00,
2013-04-09 08:53:00,35.0,34.0,30.01,WSW,243,0.0,2.0,96,0.00,,,-99.99,,2013-04-09 12:53:00,
2013-04-09 09:03:00,35.0,34.0,30.01,WNW,300,1.0,3.0,96,0.41,,,-99.99,,2013-04-09 13:03:00,
2013-04-09 09:12:00,35.0,34.0,30.01,WNW,300,1.0,3.0,96,0.41,,,-99.99,,2013-04-09 13:12:00,
2013-04-09 09:23:00,36.0,35.0,30.01,North,11,0.0,4.0,97,0.24,,,-99.99,,2013-04-09 13:23:00,
2013-04-09 09:33:00,36.0,35.0,30.01,North,11,0.0,4.0,97,0.00,,,-99.99,,2013-04-09 13:33:00,
2013-04-09 09:43:00,36.0,35.0,30.01,North,11,0.0,4.0,97,0.00,,,-99.99,,2013-04-09 13:43:00,
2013-04-09 09:52:00,37.0,36.0,30.00,North,11,0.0,1.0,97,0.00,,,-99.99,,2013-04-09 13:52:00,
2013-04-09 10:03:00,37.0,36.0,29.99,North,11,0.0,2.0,97,0.00,,,-99.99,,2013-04-09 14:03:00,
2013-04-09 10:12:00,37.0,36.0,29.99,North,11,0.0,2.0,97,0.00,,,-99.99,,2013-04-09 14:12:00,
2013-04-09 10:22:00,38.0,37.0,29.98,North,11,0.0,0.0,97,0.00,,,-99.99,,2013-04-09 14:22:00,
2013-04-09 10:33:00,39.0,38.0,29.99,North,11,0.0,4.0,97,0.00,,,-99.99,,2013-04-09 14:33:00,
2013-04-09 10:43:00,39.0,38.0,29.99,North,11,0.0,4.0,97,0.00,,,-99.99,,2013-04-09 14:43:00,
2013-04-09 10:52:00,39.0,38.0,30.00,North,11,0.0,2.0,97,0.00,,,-99.99,,2013-04-09 14:52:00,
2013-04-09 11:02:00,39.0,38.0,29.97,South,169,0.0,2.0,97,0.00,,,-99.99,,2013-04-09 15:02:00,
2013-04-09 11:13:00,39.0,38.0,29.97,South,169,0.0,2.0,97,0.00,,,-99.99,,2013-04-09 15:13:00,
2013-04-09 11:23:00,40.0,39.0,29.97,SSW,194,0.0,8.0,97,0.00,,,-99.99,,2013-04-09 15:23:00,
2013-04-09 11:34:00,40.0,39.0,29.96,East,91,5.0,5.0,97,0.00,,,-99.99,,2013-04-09 15:34:00,
2013-04-09 11:43:00,40.0,39.0,29.96,East,91,5.0,5.0,97,0.00,,,-99.99,,2013-04-09 15:43:00,
2013-04-09 11:54:00,41.0,40.0,29.95,SSW,195,0.0,8.0,97,0.00,,,-99.99,,2013-04-09 15:54:00,
2013-04-09 12:03:00,41.0,40.0,29.95,SSE,157,4.0,9.0,97,0.00,,,-99.99,,2013-04-09 16:03:00,
2013-04-09 12:13:00,41.0,40.0,29.95,SSE,157,4.0,9.0,97,0.00,,,-99.99,,2013-04-09 16:13:00,
2013-04-09 12:23:00,41.0,40.0,29.93,SSE,162,4.0,9.0,97,0.00,,,-99.99,,2013-04-09 16:23:00,
2013-04-09 12:33:00,41.0,40.0,29.93,SSE,162,7.0,16.0,96,0.00,,,-99.99,,2013-04-09 16:33:00,
2013-04-09 12:42:00,41.0,40.0,29.93,SSE,162,7.0,16.0,96,0.00,,,-99.99,,2013-04-09 16:42:00,
2013-04-09 12:53:00,41.0,40.0,29.93,WNW,282,0.0,12.0,96,0.00,,,-99.99,,2013-04-09 16:53:00,
2013-04-09 13:02:00,41.0,40.0,29.92,ENE,68,0.0,9.0,96,0.00,,,-99.99,,2013-04-09 17:02:00,
2013-04-09 13:13:00,41.0,40.0,29.92,ENE,68,0.0,9.0,96,0.00,,,-99.99,,2013-04-09 17:13:00,
2013-04-09 13:23:00,41.0,40.0,29.91,East,101,4.0,13.0,96,0.00,,,-99.99,,2013-04-09 17:23:00,
2013-04-09 13:32:00,41.0,40.0,29.94,SSE,154,2.0,7.0,95,0.00,,,-99.99,,2013-04-09 17:32:00,
2013-04-09 13:43:00,41.0,40.0,29.94,SSE,154,2.0,7.0,95,0.00,,,-99.99,,2013-04-09 17:43:00,
2013-04-09 13:54:00,41.0,40.0,29.93,ENE,73,0.0,7.0,96,0.00,,,-99.99,,2013-04-09 17:54:00,
2013-04-09 14:02:00,40.0,39.0,29.93,ESE,118,2.0,8.0,96,0.07,,,-99.99,,2013-04-09 18:02:00,
2013-04-09 14:13:00,40.0,39.0,29.93,ESE,118,2.0,8.0,96,0.07,,,-99.99,,2013-04-09 18:13:00,
2013-04-09 14:23:00,40.0,39.0,29.93,ENE,72,4.0,7.0,96,0.04,,,-99.99,,2013-04-09 18:23:00,
2013-04-09 14:33:00,40.0,39.0,29.92,SSE,149,1.0,5.0,96,0.00,,,-99.99,,2013-04-09 18:33:00,
2013-04-09 14:43:00,40.0,39.0,29.92,SSE,149,1.0,5.0,96,0.00,,,-99.99,,2013-04-09 18:43:00,
2013-04-09 14:53:00,40.0,39.0,29.92,ENE,66,0.0,5.0,96,0.00,,,-99.99,,2013-04-09 18:53:00,
2013-04-09 15:03:00,40.0,39.0,29.92,ENE,66,0.0,5.0,96,0.00,,,-99.99,,2013-04-09 19:03:00,
2013-04-09 15:12:00,40.0,39.0,29.92,ENE,66,0.0,5.0,96,0.00,,,-99.99,,2013-04-09 19:12:00,
2013-04-09 15:22:00,40.0,39.0,29.92,ENE,66,0.0,5.0,96,0.00,,,-99.99,,2013-04-09 19:22:00,
2013-04-09 15:32:00,40.0,39.0,29.92,ESE,116,0.0,6.0,96,0.00,,,-99.99,,2013-04-09 19:32:00,
2013-04-09 15:42:00,40.0,39.0,29.92,ESE,116,0.0,6.0,96,0.00,,,-99.99,,2013-04-09 19:42:00,
2013-04-09 15:52:00,40.0,39.0,29.93,ENE,69,0.0,4.0,96,0.00,,,-99.99,,2013-04-09 19:52:00,
2013-04-09 16:03:00,40.0,39.0,29.92,SSE,153,0.0,4.0,96,0.00,,,-99.99,,2013-04-09 20:03:00,
2013-04-09 16:12:00,40.0,39.0,29.92,SSE,153,0.0,4.0,96,0.00,,,-99.99,,2013-04-09 20:12:00,
2013-04-09 16:22:00,40.0,39.0,29.94,East,81,0.0,3.0,96,0.00,,,-99.99,,2013-04-09 20:22:00,
2013-04-09 16:33:00,40.0,39.0,29.92,ESE,105,2.0,6.0,96,0.00,,,-99.99,,2013-04-09 20:33:00,
2013-04-09 16:43:00,40.0,39.0,29.92,ESE,105,2.0,6.0,96,0.00,,,-99.99,,2013-04-09 20:43:00,
2013-04-09 16:53:00,40.0,39.0,29.91,NE,51,1.0,6.0,96,0.00,,,-99.99,,2013-04-09 20:53:00,
2013-04-09 17:02:00,40.0,39.0,29.91,ENE,72,0.0,4.0,97,0.00,,,-99.99,,2013-04-09 21:02:00,
2013-04-09 17:13:00,40.0,39.0,29.91,ENE,72,0.0,4.0,97,0.00,,,-99.99,,2013-04-09 21:13:00,
2013-04-09 17:22:00,40.0,39.0,29.91,ENE,72,0.0,4.0,97,0.00,,,-99.99,,2013-04-09 21:22:00,
2013-04-09 17:33:00,40.0,39.0,29.93,ESE,103,0.0,11.0,96,0.00,,,-99.99,,2013-04-09 21:33:00,
2013-04-09 17:42:00,40.0,39.0,29.93,ESE,103,0.0,11.0,96,0.00,,,-99.99,,2013-04-09 21:42:00,
2013-04-09 17:53:00,39.0,38.0,29.94,NNW,330,0.0,5.0,96,0.00,,,-99.99,,2013-04-09 21:53:00,
2013-04-09 18:03:00,39.0,38.0,29.95,East,81,0.0,5.0,96,0.00,,,-99.99,,2013-04-09 22:03:00,
2013-04-09 18:13:00,39.0,38.0,29.96,NE,41,0.0,6.0,96,0.00,,,-99.99,,2013-04-09 22:13:00,
2013-04-09 18:23:00,39.0,38.0,29.96,NE,41,0.0,6.0,96,0.00,,,-99.99,,2013-04-09 22:23:00,
2013-04-09 18:33:00,39.0,38.0,29.95,North,4,0.0,7.0,96,0.00,,,-99.99,,2013-04-09 22:33:00,
2013-04-09 18:42:00,39.0,38.0,29.95,North,4,0.0,7.0,96,0.00,,,-99.99,,2013-04-09 22:42:00,
2013-04-09 18:53:00,38.0,37.0,29.95,NNE,32,2.0,5.0,96,0.00,,,-99.99,,2013-04-09 22:53:00,
2013-04-09 19:03:00,38.0,37.0,29.95,ENE,63,0.0,5.0,96,0.00,,,-99.99,,2013-04-09 23:03:00,
2013-04-09 19:13:00,38.0,37.0,29.94,NNE,26,0.0,4.0,96,0.00,,,-99.99,,2013-04-09 23:13:00,
2013-04-09 19:23:00,38.0,37.0,29.94,NNE,26,0.0,4.0,96,0.00,,,-99.99,,2013-04-09 23:23:00,
2013-04-09 19:32:00,38.0,37.0,29.94,East,91,0.0,2.0,96,0.00,,,-99.99,,2013-04-09 23:32:00,
2013-04-09 19:42:00,38.0,37.0,29.94,East,91,0.0,2.0,96,0.00,,,-99.99,,2013-04-09 23:42:00,
2013-04-09 19:53:00,38.0,37.0,29.94,East,91,0.0,2.0,96,0.00,,,-99.99,,2013-04-09 23:53:00,
2013-04-09 20:03:00,38.0,37.0,29.94,East,91,0.0,2.0,96,0.00,,,-99.99,,2013-04-10 00:03:00,
2013-04-09 20:12:00,38.0,37.0,29.94,East,91,0.0,2.0,96,0.00,,,-99.99,,2013-04-10 00:12:00,
2013-04-09 20:23:00,38.0,37.0,30.00,East,91,0.0,3.0,97,0.00,,,-99.99,,2013-04-10 00:23:00,
2013-04-09 20:33:00,38.0,37.0,30.00,East,91,0.0,3.0,97,0.00,,,-99.99,,2013-04-10 00:33:00,
2013-04-09 20:42:00,38.0,37.0,30.00,East,91,0.0,3.0,97,0.00,,,-99.99,,2013-04-10 00:42:00,
2013-04-09 20:53:00,38.0,37.0,30.00,East,91,0.0,3.0,97,0.00,,,-99.99,,2013-04-10 00:53:00,
2013-04-09 21:02:00,38.0,37.0,29.99,East,91,0.0,0.0,97,0.00,,,-99.99,,2013-04-10 01:02:00,
2013-04-09 21:12:00,38.0,37.0,30.00,East,91,0.0,0.0,97,0.00,,,-99.99,,2013-04-10 01:12:00,
2013-04-09 21:23:00,38.0,37.0,30.00,East,91,0.0,0.0,97,0.00,,,-99.99,,2013-04-10 01:23:00,
2013-04-09 21:32:00,38.0,37.0,30.01,East,91,0.0,0.0,97,0.00,,,-99.99,,2013-04-10 01:32:00,
2013-04-09 21:43:00,38.0,37.0,30.01,East,91,0.0,0.0,97,0.00,,,-99.99,,2013-04-10 01:43:00,
2013-04-09 21:52:00,38.0,37.0,30.00,East,91,0.0,0.0,97,0.00,,,-99.99,,2013-04-10 01:52:00,
2013-04-09 22:02:00,38.0,37.0,30.00,East,91,0.0,0.0,97,0.00,,,-99.99,,2013-04-10 02:02:00,
2013-04-09 22:13:00,38.0,37.0,30.00,East,91,0.0,0.0,97,0.00,,,-99.99,,2013-04-10 02:13:00,
2013-04-09 22:22:00,38.0,37.0,29.99,East,91,0.0,0.0,97,0.00,,,-99.99,,2013-04-10 02:22:00,
2013-04-09 22:32:00,37.0,36.0,30.00,East,91,0.0,0.0,97,0.00,,,-99.99,,2013-04-10 02:32:00,
2013-04-09 22:43:00,37.0,36.0,30.00,East,91,0.0,0.0,97,0.00,,,-99.99,,2013-04-10 02:43:00,
2013-04-09 22:53:00,38.0,37.0,29.98,East,91,0.0,0.0,97,0.00,,,-99.99,,2013-04-10 02:53:00,
2013-04-09 23:03:00,37.0,36.0,29.98,East,91,0.0,0.0,97,0.00,,,-99.99,,2013-04-10 03:03:00,
2013-04-09 23:12:00,37.0,36.0,29.98,East,91,0.0,0.0,97,0.00,,,-99.99,,2013-04-10 03:12:00,
2013-04-09 23:22:00,38.0,37.0,29.97,East,91,0.0,0.0,97,0.00,,,-99.99,,2013-04-10 03:22:00,
2013-04-09 23:33:00,37.0,36.0,29.97,East,91,0.0,0.0,97,0.00,,,-99.99,,2013-04-10 03:33:00,
2013-04-09 23:43:00,37.0,36.0,29.97,East,91,0.0,0.0,97,0.00,,,-99.99,,2013-04-10 03:43:00,
2013-04-09 23:53:00,37.0,36.0,29.97,East,91,0.0,0.0,97,0.00,,,-99.99,,2013-04-10 03:53:00,